McCook, NE

8:17 AM CDT on July 25, 2017 (GMT -0500)
McCook Municipal

Weather History for KMCK - November, 2011

Change the Weather History Date:

Tuesday, November 22, 2011

  Actual Average Record
Temperature  
Mean Temperature 38 °F 35 °F  
Max Temperature 60 °F 49 °F 76 °F (2002)
Min Temperature 16 °F 21 °F -1 °F (1975)
Degree Days  
Heating Degree Days 27    
Moisture  
Dew Point 22 °F    
Average Humidity 63    
Maximum Humidity 96    
Minimum Humidity 24    
Precipitation  
Precipitation 0.00 in 0.02 in 0.36 in (1979)
Month to date precipitation 0.28 0.73  
Year to date precipitation 19.20 21.67  
Sea Level Pressure  
Sea Level Pressure 30.13 in    
Wind  
Wind Speed 7 mph (West)    
Max Wind Speed 24 mph    
Max Gust Speed 31 mph    
Visibility 9 miles    
Events      
T = Trace of Precipitation, MM = Missing Value Source: NWS Daily Summary

Daily Weather History Graph

Daily Weather History Graph

Search for Another Location

Airport or City:

Trip Planner

Search our weather history database for the weather conditions in past years. The results will help you decide how hot, cold, wet, or windy it might be!

Date:

Astronomy

Nov. 22, 2011 Rise Set
Actual Time 7:35 AM CST 5:20 PM CST
Civil Twilight 7:06 AM CST 5:50 PM CST
Nautical Twilight 6:32 AM CST 6:23 PM CST
Astronomical Twilight 6:00 AM CST 6:56 PM CST
Moon 4:28 AM CST (11/22) 3:21 PM CST (11/22)
Length of Visible Light 10h 44m
Length of Day
9h 45m
Waning Crescent, 9% of the Moon is Illuminated
Nov 22
Waning Crescent
Nov 25
New
Dec 2
First Quarter
Dec 10
Full
Dec 17
Last Quarter

Hourly Weather History & Observations

Time (CST) Temp. Windchill Dew Point Humidity Pressure Visibility Wind Dir Wind Speed Gust Speed Precip Events Conditions
12:53 AM 23.0 °F 17.0 °F 19.9 °F 88% 30.12 in 8.0 mi WSW 4.6 mph - N/A   Clear
1:53 AM 19.9 °F - 17.1 °F 89% 30.12 in 6.0 mi Calm Calm - N/A   Clear
2:53 AM 16.0 °F 6.3 °F 14.0 °F 92% 30.13 in 7.0 mi WSW 6.9 mph - N/A   Clear
3:53 AM 17.1 °F 10.0 °F 16.0 °F 96% 30.12 in 6.0 mi SSW 4.6 mph - N/A   Clear
4:53 AM 18.0 °F 7.7 °F 16.0 °F 92% 30.13 in 7.0 mi WSW 8.1 mph - N/A   Clear
5:53 AM 17.1 °F 8.7 °F 16.0 °F 96% 30.15 in 7.0 mi SW 5.8 mph - N/A   Clear
6:53 AM 18.0 °F 11.1 °F 16.0 °F 92% 30.15 in 6.0 mi SW 4.6 mph - N/A   Clear
7:53 AM 19.9 °F - 18.0 °F 92% 30.15 in 5.0 mi Calm Calm - N/A   Clear
8:53 AM 27.0 °F 20.5 °F 24.1 °F 89% 30.15 in 7.0 mi WSW 5.8 mph - N/A   Clear
9:53 AM 35.6 °F 30.7 °F 28.4 °F 75% 30.08 in 9.0 mi WSW 5.8 mph - N/A   Clear
10:53 AM 51.1 °F - 33.1 °F 50% 30.14 in 10.0 mi WNW 12.7 mph - N/A   Clear
11:53 AM 55.9 °F - 26.1 °F 32% 30.11 in 10.0 mi NW 24.2 mph 31.1 mph N/A   Clear
12:53 PM 57.0 °F - 26.1 °F 30% 30.08 in 10.0 mi NW 20.7 mph - N/A   Clear
1:53 PM 59.0 °F - 25.0 °F 27% 30.07 in 10.0 mi NW 17.3 mph - N/A   Clear
2:53 PM 60.1 °F - 23.0 °F 24% 30.07 in 10.0 mi NW 20.7 mph - N/A   Clear
3:53 PM 57.9 °F - 23.0 °F 26% 30.07 in 10.0 mi NW 12.7 mph - N/A   Clear
4:53 PM 54.0 °F - 24.1 °F 31% 30.10 in 10.0 mi WNW 8.1 mph - N/A   Clear
5:53 PM 51.1 °F - 24.1 °F 35% 30.13 in 10.0 mi WNW 6.9 mph - N/A   Clear
6:53 PM 46.0 °F 43.1 °F 24.1 °F 42% 30.15 in 10.0 mi West 5.8 mph - N/A   Clear
7:53 PM 37.9 °F 32.1 °F 23.0 °F 55% 30.18 in 10.0 mi SW 8.1 mph - N/A   Clear
8:53 PM 35.1 °F 27.9 °F 21.9 °F 59% 30.19 in 10.0 mi WSW 9.2 mph - N/A   Clear
9:53 PM 34.0 °F 28.0 °F 21.9 °F 61% 30.19 in 10.0 mi West 6.9 mph - N/A   Clear
10:53 PM 28.9 °F 25.2 °F 21.0 °F 72% 30.17 in 10.0 mi WNW 3.5 mph - N/A   Clear
11:53 PM 26.6 °F 18.2 °F 19.4 °F 74% 30.14 in 10.0 mi West 8.1 mph - N/A   Clear